CZ-3B R/B

Last updated on Nov. 17, 2019, 12:02 a.m. UTC

1 44710U 19073B   19320.22656704  .00032922  80651-6  18898-3 0  9994
2 44710  28.4138 302.1616 7237113 186.2625 153.5121  2.39441949   280
UTC
Height (km)
Latitude
Longitude
Inclination
Orbital Period
UTC large
Height (km)
Speed (km/s)
/
Latitude / Longitude
Inclination (degrees)
Orbital Period (minutes)
Azimuth
Elevation
Range (km)
Doppler Factor
iOS Compass Heading
iOS Angle

Next 30 passes for location: Hong Kong

Rise time Rise Azimuth (degrees) Set time Set Azimuth (degrees) Duration Max altitude (degrees)

No matching passes for this satellites